Regional Weather Roundup
Issued by NWS Goodland, KS

Home | Current Version | Previous Version | Text Only | Print | Product List | Glossary On
Versions: 1 2 3 4 5 6 7 8 9 10 11 12 13 14 15 16 17 18 19 20 21 22 23 24 25 26 27 28 29 30 31 32 33 34 35 36 37 38 39 40 41 42 43 44 45 46 47 48 49 50
000
ASUS43 KGLD 221259
RWRGLD

GOODLAND FORECAST AREA HOURLY WEATHER ROUNDUP
NATIONAL WEATHER SERVICE GOODLAND KS
700 AM MDT WED OCT 22 2014

...OFFICIAL OBSERVATIONS...

CITY           SKY/WX    TMP DP  RH WIND       PRES   REMARKS
GOODLAND KS    CLOUDY    50  47  89 S6        29.98S
HILL CITY KS   MOCLDY    58  50  75 S6        29.99F
IMPERIAL NEB   CLOUDY    54  46  74 N7        29.96R
MCCOOK NEB     MOCLDY    57  49  74 SW6       29.96R
AKRON CO       CLOUDY    51  45  79 NW9       30.02R
BURLINGTON CO  CLOUDY    54  44  69 NW9       30.00R
LIMON CO       PTCLDY    44  40  85 W9        30.07R
$$

...UNOFFICIAL OBSERVATIONS...

CITY           SKY/WX    TMP DP  RH WIND       PRES   REMARKS
COLBY KS       CLEAR     55  52  88 S9        29.98S
GOVE KS          N/A     57  32  39 MISG        N/A
NORTON KS      CLEAR     55  46  71 S9        29.95F
SHARON SPRINGS   N/A     51  48  91 S7          N/A
TRENTON NEB      N/A     56  32  40 SW6         N/A
KIT CARSON CO    N/A     47  43  86 CALM        N/A
$$



USA.gov is the U.S. government's official web portal to all federal, state and local government web resources and services.